Date String (YYYY-MM-DD hh:mm:ss) UTC,Instrument flags,absolute air pressure of the measurement (hPa),sample flow rate (lpm),inlet stack bypass flow (lpm),air temperature of the measurement (°C),ambient temperature measured by the external sensor (°C),aerosol sample conditioner tube jacket temperature (°C),OPC LED temperature (°C),internal box temperature (°C),relative humidity of the measurement (%),span deviation,mass concentration of particles derived from Lorenz-Mie calculation of OPC scattering (μg/m³),mass concentration of particles derived from Lorenz-Mie calculation of OPC scattering (μg/m³),mass concentration of particles derived from Lorenz-Mie calculation of OPC scattering (μg/m³)
DateTimeUTC,F1_M11,P_M11,Q1_M11,Q2_M11,T1_M11,T2_M11,T3_M11,T4_M11,T5_M11,U1_M11,ZSPAN_M11,X0_M11,X2_M11,X1_M11
2024-02-12 21:00:00,SystemResetWarning,0824.9,5.00,000.00,021.5,021.1,000.0,029.8,023.3,15.0,0000.0,0001.70,0000.45,0000.22
2024-02-12 21:01:00,SystemResetWarning,0824.9,5.00,000.00,021.5,021.1,000.0,029.8,023.3,15.2,0000.0,0001.71,0000.45,0000.22
2024-02-12 21:02:00,SystemResetWarning,0824.9,5.00,000.00,021.6,021.1,000.0,029.8,023.3,15.2,0000.0,0000.84,0000.45,0000.22
2024-02-12 21:03:00,SystemResetWarning,0824.9,5.01,000.00,021.6,021.1,000.0,029.8,023.4,14.5,0000.0,0001.33,0000.93,0000.66
2024-02-12 21:04:00,SystemResetWarning,0824.8,5.00,000.00,021.6,021.1,000.0,029.8,023.4,14.1,0000.0,0002.32,0001.79,0001.48
2024-02-12 21:05:00,SystemResetWarning,0824.8,5.00,000.00,021.6,021.1,000.0,029.8,023.4,14.3,0000.0,0003.36,0002.72,0002.33
2024-02-12 21:06:00,SystemResetWarning,0824.7,4.99,000.00,021.6,021.1,000.0,029.8,023.4,13.8,0000.0,0004.76,0003.32,0003.03
2024-02-12 21:07:00,SystemResetWarning,0824.8,5.00,000.00,021.6,021.1,000.0,029.8,023.4,13.9,0000.0,0006.37,0003.74,0003.45
2024-02-12 21:08:00,SystemResetWarning,0824.7,4.99,000.00,021.6,021.1,000.0,029.9,023.4,13.0,0000.0,0007.64,0004.22,0003.87
2024-02-12 21:09:00,SystemResetWarning,0824.7,5.01,000.00,021.6,021.1,000.0,029.9,023.4,12.4,0000.0,0008.60,0004.64,0004.24
2024-02-12 21:10:00,SystemResetWarning,0824.7,5.00,000.00,021.6,021.2,000.0,029.9,023.4,12.8,0000.0,0009.01,0004.99,0004.56
2024-02-12 21:11:00,SystemResetWarning,0824.7,5.00,000.00,021.6,021.2,000.0,029.9,023.4,12.6,0000.0,0009.41,0005.35,0004.90
2024-02-12 21:12:00,SystemResetWarning,0824.7,5.01,000.00,021.6,021.2,000.0,029.9,023.4,12.7,0000.0,0009.79,0005.67,0005.20
2024-02-12 21:13:00,SystemResetWarning,0824.7,5.01,000.00,021.7,021.2,000.0,029.9,023.5,13.1,0000.0,0010.19,0005.94,0005.42
2024-02-12 21:14:00,SystemResetWarning,0824.7,4.98,000.00,021.7,021.2,000.0,029.9,023.5,12.4,0000.0,0010.22,0005.85,0005.34
2024-02-12 21:15:00,SystemResetWarning,0824.7,5.00,000.00,021.7,021.2,000.0,029.9,023.5,12.8,0000.0,0009.72,0005.38,0004.91
2024-02-12 21:16:00,SystemResetWarning,0824.7,5.00,000.00,021.7,021.2,000.0,029.9,023.5,12.6,0000.0,0009.30,0004.92,0004.46
2024-02-12 21:17:00,SystemResetWarning,0824.6,5.01,000.00,021.7,021.2,000.0,029.9,023.5,12.4,0000.0,0008.62,0004.44,0004.02
2024-02-12 21:18:00,SystemResetWarning,0824.6,5.00,000.00,021.7,021.2,000.0,030.0,023.5,12.5,0000.0,0007.70,0004.03,0003.62
2024-02-12 21:19:00,SystemResetWarning,0824.6,4.98,000.00,021.7,021.2,000.0,030.0,023.5,12.8,0000.0,0006.81,0003.63,0003.27
2024-02-12 21:20:00,SystemResetWarning,0824.5,5.00,000.00,021.7,021.2,000.0,030.0,023.5,12.6,0000.0,0004.80,0003.17,0002.72
2024-02-12 21:21:00,SystemResetWarning,0824.6,5.00,000.00,021.7,021.2,000.0,030.0,023.5,12.4,0000.0,0004.16,0002.71,0002.22
2024-02-12 21:22:00,SystemResetWarning,0824.5,5.00,000.00,021.7,021.2,000.0,030.0,023.5,12.6,0000.0,0003.74,0002.04,0001.60
2024-02-12 21:23:00,SystemResetWarning,0824.5,5.01,000.00,021.7,021.2,000.0,030.0,023.5,12.4,0000.0,0004.09,0001.44,0001.04
2024-02-12 21:24:00,SystemResetWarning,0824.5,5.01,000.00,021.7,021.2,000.0,030.0,023.5,12.8,0000.0,0003.47,0000.93,0000.60
2024-02-12 21:25:00,SystemResetWarning,0824.6,4.99,000.00,021.7,021.2,000.0,030.0,023.5,12.1,0000.0,0003.45,0000.59,0000.31
2024-02-12 21:26:00,SystemResetWarning,0824.6,4.98,000.00,021.7,021.2,000.0,030.0,023.5,12.4,0000.0,0003.20,0000.54,0000.24
2024-02-12 21:27:00,SystemResetWarning,0824.5,5.01,000.00,021.7,021.2,000.0,030.0,023.5,12.4,0000.0,0003.44,0000.57,0000.25
2024-02-12 21:28:00,SystemResetWarning,0824.6,5.01,000.00,021.7,021.2,000.0,030.0,023.5,12.5,0000.0,0003.31,0000.54,0000.25
2024-02-12 21:29:00,SystemResetWarning,0824.6,5.00,000.00,021.8,021.2,000.0,030.0,023.5,12.8,0000.0,0003.37,0000.55,0000.25
2024-02-12 21:30:00,SystemResetWarning,0824.6,5.00,000.00,021.7,021.2,000.0,030.0,023.6,12.6,0000.0,0003.38,0000.55,0000.25
2024-02-12 21:31:00,SystemResetWarning,0824.6,4.99,000.00,021.8,021.2,000.0,030.0,023.6,12.4,0000.0,0003.40,0000.57,0000.26
2024-02-12 21:32:00,SystemResetWarning,0824.5,5.00,000.00,021.8,021.2,000.0,030.0,023.6,12.8,0000.0,0003.57,0000.61,0000.26
2024-02-12 21:33:00,SystemResetWarning,0824.5,5.00,000.00,021.8,021.2,000.0,030.0,023.6,12.5,0000.0,0003.53,0000.58,0000.26
2024-02-12 21:34:00,SystemResetWarning,0824.5,5.00,000.00,021.8,021.2,000.0,030.1,023.6,12.3,0000.0,0002.20,0000.57,0000.26
2024-02-12 21:35:00,SystemResetWarning,0824.5,5.00,000.00,021.8,021.2,000.0,030.1,023.6,12.4,0000.0,0002.24,0000.58,0000.27
2024-02-12 21:36:00,SystemResetWarning,0824.5,5.00,000.00,021.8,021.2,000.0,030.1,023.6,12.5,0000.0,0001.73,0000.57,0000.27
2024-02-12 21:37:00,SystemResetWarning,0824.5,5.00,000.00,021.8,021.2,000.0,030.1,023.6,12.6,0000.0,0001.73,0000.55,0000.26
2024-02-12 21:38:00,SystemResetWarning,0824.5,5.00,000.00,021.8,021.2,000.0,030.1,023.6,12.6,0000.0,0001.46,0000.50,0000.25
2024-02-12 21:39:00,SystemResetWarning,0824.5,5.00,000.00,021.8,021.3,000.0,030.1,023.6,13.0,0000.0,0001.29,0000.51,0000.25
2024-02-12 21:40:00,SystemResetWarning,0824.6,5.00,000.00,021.8,021.3,000.0,030.1,023.6,12.8,0000.0,0001.27,0000.50,0000.25
2024-02-12 21:41:00,SystemResetWarning,0824.6,4.99,000.00,021.8,021.3,000.0,030.1,023.6,12.2,0000.0,0001.14,0000.46,0000.25
2024-02-12 21:42:00,SystemResetWarning,0824.5,4.99,000.00,021.8,021.3,000.0,030.1,023.6,12.3,0000.0,0001.11,0000.44,0000.24
2024-02-12 21:43:00,SystemResetWarning,0824.6,5.01,000.00,021.8,021.3,000.0,030.1,023.6,12.6,0000.0,0001.03,0000.41,0000.24
2024-02-12 21:44:00,SystemResetWarning,0824.6,5.02,000.00,021.9,021.3,000.0,030.1,023.6,12.5,0000.0,0000.86,0000.38,0000.25
2024-02-12 21:45:00,SystemResetWarning,0824.7,5.00,000.00,021.9,021.3,000.0,030.1,023.6,13.1,0000.0,0000.95,0000.42,0000.25
2024-02-12 21:46:00,SystemResetWarning,0824.7,5.00,000.00,021.9,021.3,000.0,030.1,023.6,12.6,0000.0,0000.88,0000.43,0000.25
2024-02-12 21:47:00,SystemResetWarning,0824.7,4.99,000.00,021.9,021.3,000.0,030.1,023.6,12.8,0000.0,0000.94,0000.45,0000.25
2024-02-12 21:48:00,SystemResetWarning,0824.7,5.00,000.00,021.9,021.3,000.0,030.1,023.6,12.8,0000.0,0000.85,0000.44,0000.25
2024-02-12 21:49:00,SystemResetWarning,0824.7,5.01,000.00,021.9,021.3,000.0,030.1,023.6,12.2,0000.0,0001.35,0000.44,0000.25
2024-02-12 21:50:00,SystemResetWarning,0824.7,5.00,000.00,021.9,021.3,000.0,030.1,023.6,12.5,0000.0,0001.35,0000.43,0000.25
2024-02-12 21:51:00,SystemResetWarning,0824.7,5.00,000.00,021.8,021.3,000.0,030.1,023.6,12.4,0000.0,0001.39,0000.45,0000.25
2024-02-12 21:52:00,SystemResetWarning,0824.7,4.99,000.00,021.8,021.3,000.0,030.1,023.6,12.4,0000.0,0001.89,0000.50,0000.25
2024-02-12 21:53:00,SystemResetWarning,0824.7,4.99,000.00,021.8,021.3,000.0,030.1,023.6,12.5,0000.0,0001.88,0000.50,0000.24
2024-02-12 21:54:00,SystemResetWarning,0824.7,5.00,000.00,021.8,021.3,000.0,030.1,023.6,12.9,0000.0,0002.04,0000.53,0000.24
2024-02-12 21:55:00,SystemResetWarning,0824.8,5.00,000.00,021.8,021.3,000.0,030.1,023.6,13.1,0000.0,0002.07,0000.54,0000.24
2024-02-12 21:56:00,SystemResetWarning,0824.8,5.00,000.00,021.8,021.3,000.0,030.1,023.6,12.4,0000.0,0002.01,0000.52,0000.24
2024-02-12 21:57:00,SystemResetWarning,0824.8,5.01,000.00,021.8,021.3,000.0,030.1,023.6,12.6,0000.0,0002.00,0000.51,0000.24
2024-02-12 21:58:00,SystemResetWarning,0824.8,5.01,000.00,021.8,021.3,000.0,030.2,023.6,12.4,0000.0,0001.95,0000.49,0000.24
2024-02-12 21:59:00,SystemResetWarning,0824.7,5.00,000.00,021.9,021.3,000.0,030.2,023.6,12.5,0000.0,0001.93,0000.49,0000.24
